Weather History for Redding, CA

Change the Weather History Date:

Thursday, October 10, 2013

  Actual Average Record
Temperature  
Mean Temperature 65 °F -  
Max Temperature 72 °F 81 °F 102 °F (1991)
Min Temperature 58 °F 51 °F 41 °F (1998)
Degree Days  
Heating Degree Days 0    
Cooling Degree Days 0    
Growing Degree Days 14 (Base 50)    
Moisture  
Dew Point 37 °F    
Average Humidity 34    
Maximum Humidity 40    
Minimum Humidity 28    
Precipitation  
Precipitation 0.00 in 0.05 in 1.09 in (2007)
Month to date precipitation 0.00 0.36  
Year to date precipitation 10.69 22.13  
Since 1 July precipitation 1.39 1.27  
Sea Level Pressure  
Sea Level Pressure 29.87 in    
Wind  
Wind Speed 7 mph (NE)    
Max Wind Speed 13 mph    
Max Gust Speed 17 mph    
Visibility 10 miles    
Events      
T = Trace of Precipitation, MM = Missing Value Source: NWS Daily Summary

Daily Weather History Graph

Daily Weather History Graph

Search for Another Location

Airport:

Trip Planner

Search our weather history database for the weather conditions in past years. The results will help you decide how hot, cold, wet, or windy it might be!

Date:

Astronomy

Oct. 10, 2013 Rise Set
Actual Time 7:15 AM PDT 6:36 PM PDT
Civil Twilight 6:47 AM PDT 7:03 PM PDT
Nautical Twilight 6:16 AM PDT 7:35 PM PDT
Astronomical Twilight 5:44 AM PDT 8:06 PM PDT
Moon 1:12 PM PDT (10/10) 11:19 PM PDT (10/10)
Length of Visible Light 12h 15m
Length of Day
11h 21m
Waxing Crescent, 37% of the Moon is Illuminated
Oct 10
Waxing Crescent
Oct 11
First Quarter
Oct 18
Full
Oct 26
Last Quarter
Nov 3
New

Hourly Weather History & Observations

Time (PDT) Temp. Dew Point Humidity Pressure Visibility Wind Dir Wind Speed Gust Speed Precip Events Conditions
12:53 AM 57.9 °F 33.1 °F 39% 29.78 in 10.0 mi NNW 8.1 mph - N/A   Clear
1:53 AM 60.1 °F 32.0 °F 35% 29.79 in 10.0 mi NNW 5.8 mph - N/A   Clear
2:53 AM 60.1 °F 32.0 °F 35% 29.79 in 10.0 mi NNW 9.2 mph - N/A   Clear
3:53 AM 60.1 °F 32.0 °F 35% 29.78 in 10.0 mi NNW 6.9 mph - N/A   Clear
4:53 AM 60.1 °F 33.1 °F 36% 29.77 in 10.0 mi NNW 6.9 mph - N/A   Clear
5:53 AM 60.1 °F 33.1 °F 36% 29.78 in 10.0 mi North 6.9 mph - N/A   Clear
6:53 AM 59.0 °F 33.1 °F 38% 29.80 in 10.0 mi NNW 6.9 mph - N/A   Clear
7:53 AM 59.0 °F 33.1 °F 38% 29.83 in 10.0 mi North 8.1 mph - N/A   Clear
8:53 AM 62.1 °F 33.1 °F 34% 29.87 in 10.0 mi North 4.6 mph - N/A   Clear
9:53 AM 62.1 °F 35.1 °F 37% 29.88 in 10.0 mi SSE 9.2 mph - N/A   Clear
10:53 AM 64.9 °F 35.1 °F 33% 29.89 in 10.0 mi SSE 5.8 mph - N/A   Clear
11:53 AM 66.9 °F 37.0 °F 33% 29.90 in 10.0 mi East 3.5 mph - N/A   Clear
12:53 PM 69.1 °F 36.0 °F 30% 29.89 in 10.0 mi NE 3.5 mph - N/A   Clear
1:53 PM 69.1 °F 37.9 °F 32% 29.87 in 10.0 mi South 4.6 mph - N/A   Clear
2:53 PM 71.1 °F 37.0 °F 29% 29.87 in 10.0 mi South 6.9 mph - N/A   Clear
3:53 PM 72.0 °F 37.9 °F 29% 29.86 in 10.0 mi SSE 10.4 mph - N/A   Clear
4:53 PM 71.1 °F 39.0 °F 31% 29.86 in 10.0 mi SE 11.5 mph - N/A   Clear
5:53 PM 70.0 °F 39.9 °F 33% 29.88 in 10.0 mi South 9.2 mph - N/A   Clear
6:53 PM 64.0 °F 41.0 °F 43% 29.90 in 10.0 mi South 6.9 mph - N/A   Clear
7:53 PM 62.1 °F 41.0 °F 46% 29.92 in 10.0 mi SE 3.5 mph - N/A   Clear
8:53 PM 59.0 °F 41.0 °F 51% 29.94 in 10.0 mi Calm Calm - N/A   Clear
9:53 PM 57.9 °F 41.0 °F 53% 29.96 in 10.0 mi North 4.6 mph - N/A   Clear
10:53 PM 55.9 °F 41.0 °F 57% 29.97 in 10.0 mi North 3.5 mph - N/A   Clear
11:53 PM 51.1 °F 39.9 °F 66% 29.99 in 10.0 mi Calm Calm - N/A   Clear